Regional Weather Roundup
Issued by NWS

Home | Current Version | Previous Version | Graphics & Text | Print | Product List | Glossary Off
Versions: 1 2 3 4 5 6 7 8 9 10 11 12 13 14 15 16 17 18 19 20 21 22 23 24 25 26 27 28 29 30 31 32 33 34 35 36 37 38 39 40 41 42 43 44 45 46 47 48 49 50

000
ASUS43 KDMX 311003
RWRIA

WEATHER ROUNDUP FOR IOWA
NATIONAL WEATHER SERVICE DES MOINES IA
500 AM CDT WED AUG 31 2016

NOTE: "FAIR" INDICATES FEW OR NO CLOUDS BELOW 12,000 FEET WITH NO
SIGNIFICANT WEATHER AND/OR OBSTRUCTIONS TO VISIBILITY.

* - THESE STATIONS ARE NOT NWS STATIONS...THUS NOT UNDER NWS
QUALITY CONTROL.  THEY ALSO DO NOT REPORT WEATHER SUCH
AS PRECIPITATION OR FOG.

IAZ001>003-012>014-020>022-031>034-043>046-311100-
   NORTHWEST IOWA

CITY           SKY/WX    TMP DP  RH WIND       PRES   REMARKS
CARROLL *      PTCLDY    61  61 100 NW3       30.19R
CHEROKEE *     PTCLDY    59  59 100 NE3       30.20S FOG
DENISON *      FOG       61  61 100 CALM      30.18R VSB 1/4
LE MARS *      CLEAR     57  57 100 CALM      30.21S
ORANGE CITY *  CLEAR     63  63 100 NE3       30.22R
SHELDON *      CLEAR     54  54 100 CALM      30.20S FOG
SIOUX CITY     FOG       62  60  93 CALM      30.20R VSB 1/4
SPENCER        FOG       54  53  97 CALM      30.21S VSB 1/4
STORM LAKE *   PTCLDY    61  59  94 NE6       30.21R
$$

IAZ055>058-069>071-079>083-090>094-311100-
   SOUTHWEST IOWA

CITY           SKY/WX    TMP DP  RH WIND       PRES   REMARKS
ATLANTIC *     CLOUDY    66  64  94 N5        30.17S
AUDUBON *      CLOUDY    64  61  88 CALM      30.19S
CLARINDA *       N/A     70  70 100 MISG        N/A
COUNCIL BLFS * PTCLDY    68  66  94 NE7       30.17S
CRESTON *      CLOUDY    68  64  88 NE7       30.16S
HARLAN  *      CLOUDY    64  64 100 N6        30.21S
LAMONI         LGT RAIN  69  69 100 N7        30.13S
RED OAK *      CLOUDY    70  66  88 NE7       30.15F
SHENANDOAH *   CLOUDY    70  70 100 NE7       30.15S
$$

IAZ047>049-059>061-072>074-084-311100-
   CENTRAL IOWA

CITY           SKY/WX    TMP DP  RH WIND       PRES   REMARKS
AMES           CLOUDY    62  61  96 N7        30.16S
ANKENY *         N/A    N/A N/A N/A MISG        N/A
BOONE *          N/A     61  59  94 N8        30.16S
CHARITON *       N/A     66  64  94 MISG      30.13S
DES MOINES     CLOUDY    69  61  75 NE7       30.14S
GRINNELL*      CLOUDY    64  60  89 N6        30.14S
KNOXVILLE *    CLOUDY    68  63  83 N6        30.12S
MARSHALLTOWN   CLOUDY    60  59  96 N6        30.15R
NEWTON *       CLOUDY    64  63  94 N9        30.13S
PELLA *        CLOUDY    65  63  92 CALM      30.14S
PERRY *          N/A     63  63  99 N3        30.17S
$$

IAZ004>006-015-016-023>025-035-036-311100-
   NORTH CENTRAL IOWA

CITY           SKY/WX    TMP DP  RH WIND       PRES   REMARKS
ALGONA *       CLOUDY    59  55  88 N6        30.20R
ESTHERVILLE    CLEAR     52  52 100 NW5       30.21S
FORT DODGE *   CLOUDY    57  54  88 CALM      30.19S
MASON CITY     CLOUDY    54  52  93 NW5       30.19F
FOREST CITY *    N/A     52  52 100 CALM      30.19R
WEBSTER CITY * CLOUDY    57  57 100 N3        30.16S
IOWA FALLS *     N/A     59  57  92 CALM      30.19R
$$

IAZ007>011-017>019-026>030-037>042-050>054-066-311100-
   NORTHEAST IOWA

CITY           SKY/WX    TMP DP  RH WIND       PRES   REMARKS
CEDAR RAPIDS   MOCLDY    63  63 100 NW7       30.11S
CHARLES CITY * CLOUDY    57  57 100 N3        30.17F
CLINTON *      PTCLDY    66  65  96 N8        30.08S
DECORAH *      CLOUDY    59  59 100 N3        30.15S
DUBUQUE        PTCLDY    63  61  93 N8        30.11S
MONTICELLO *   CLOUDY    63  63 100 N3        30.10F
OELWEIN *      PTCLDY    59  59 100 N6        30.15S
WATERLOO       MOCLDY    58  56  93 NW3       30.14S
$$

IAZ064-065-067-068-078-311100-
   EAST CENTRAL IOWA

CITY           SKY/WX    TMP DP  RH WIND       PRES   REMARKS
DAVENPORT      MOCLDY    67  66  97 N6        30.08S
IOWA CITY      CLOUDY    69  63  81 N9        30.11R
MT. PLEASANT * PTCLDY    71  71 100 N7        30.09S
QUAD CITIES    CLOUDY    71  65  81 N3        30.07R
$$

IAZ062-063-075>077-085>089-095>099-311100-
   SOUTHEAST IOWA

CITY           SKY/WX    TMP DP  RH WIND       PRES   REMARKS
BURLINGTON     CLOUDY    71  70  96 N7        30.07S
FAIRFIELD *    PTCLDY    68  64  88 N6        30.10S
FORT MADISON * CLOUDY    70  70 100 N3        30.08S
KEOKUK *       CLOUDY    72  72 100 CALM      30.07S
OSKALOOSA *      N/A     65  64  96 N5        30.12S
CENTERVILLE *    N/A     68  66  94 CALM      30.13S
OTTUMWA        CLOUDY    67  64  90 N7        30.10F
WASHINGTON *   PTCLDY    68  66  94 N5        30.11R
$$

ABBREVIATIONS USED IN REMARKS
   TC - TEMPERATURES IN CELSIUS
  WCI - WIND CHILL INDEX
   HX - HEAT INDEX
  VSB - VISIBILITY
$$





USA.gov is the U.S. government's official web portal to all federal, state and local government web resources and services.